Kedves Pilóták, Oktatók, Növendékek!

Az alábbi menüpontban szeretnénk összefoglalni néhány fontos és hasznos információt, linket, amely segíthet a repülések megtervezésében.

Ha bármilyen javaslatod van a tartalommal kapcsolatban, kérlek Ez az e-mail-cím a szpemrobotok elleni védelem alatt áll. Megtekintéséhez engedélyeznie kell a JavaScript használatát.meg nekünk.

 

Jó leszállást!

Repüléssel kapcsolatos hírek

IHO.hu - - Repülés RSS

Felhőkép 

Felhőkép

Széltérkép

Széltérkép

Győr-Pér Repülőtér

Élő webkamera kép

 Nagyobb kép

Győr-Pér Repülőtér

[Source: ADDS]
METAR
LHPR 180145Z AUTO 25011KT 9999 SCT045 02/M02 Q1009 RMK BLU =
TAF
LHPR 171715Z 1718/1803 29014KT 9999 SCT040 SCT080 TEMPO 1718/1803 32020G34KT 5000 SHSN BKN020TCU =
SR / SS: 06:29 / 15:28 UTC (Napkelte / Napnyugta 2018-01-18)

Kapcsolat

Telephely:     9099 Pér, Repülõtér

Klubhelyiség: 9021 Gyõr, Városház tér 3.

E-mail: info@aeroclub-gyor.hu

Telefon: 06-20-777-9106

Adószám: 19113832-2-08

  
Joomla űrlapépítő by JoomlaShine
JSN Metro template designed by JoomlaShine.com